カタログに戻る

STARLINK-11566

運用中通信VLEO
NORAD 62914·PAYLOAD·🇺🇸 United States

打ち上げ Feb 8, 2025 から Cape Canaveral Space Force Station

Loading…

次のパス (今後24時間)

TLE

最新Source: CelesTrak SupGP

元期: Sep 14, 2026, 15:15 UTC

1 62914C 25027H   26257.63590278  .00075091  00000+0  58332-3 0  2572
2 62914  43.0005 289.0150 0001506 269.2967 161.1069 15.70797930    17

AllMySatでSTARLINK-11566をリアルタイム追跡

Download on the App Store